Location: Harmony
(28.2000°N, 81.1500°W)
Time: 10:25:34
(UTC-05:00)

Daily predictions for brighter satellites

Satellite Brightness Start Highest point End
(mag) Time Altitude Azimuth Time Altitude Azimuth Time Altitude Azimuth
Cosmos 1484 Rocket 4.2 17:48:33 10° ESE 17:50:58 17° ENE 17:53:23 10° NNE
Cosmos 2366 rocket 4.1 17:45:38 10° N 17:51:58 86° E 17:58:14 10° S
PAYLOAD A 4.1 17:50:16 10° S 17:55:02 78° WSW 18:00:00 10° NNW
USA 234 4.4 17:56:22 10° NNE 18:02:15 37° NW 18:08:08 10° WSW
CZ-4 R/B 1.8 17:59:02 10° S 18:03:12 74° WSW 18:07:20 10° NNW
Cosmos 1975 2.8 17:59:09 10° N 18:03:12 82° E 18:07:12 10° S
Meteor 1-13 Rocket 4.2 17:59:13 10° S 18:04:49 72° E 18:10:35 10° NNE
MSX 4.0 18:00:33 10° SSE 18:06:06 53° ENE 18:11:40 10° N
MOS 1 4.3 18:00:35 10° SSE 18:06:15 87° ENE 18:11:55 10° NNW
Cosmos 2369 Rocket 3.9 18:03:50 10° SE 18:06:31 14° E 18:08:55 11° ENE
KM-V1 3.7 18:06:53 10° WNW 18:09:23 37° N 18:10:47 15° ENE
CORIOLIS 4.1 18:04:53 10° SSE 18:10:17 79° ENE 18:15:41 10° N
Meteor 2-4 Rocket 4.0 18:05:41 10° SSE 18:10:43 41° E 18:15:42 10° NNE
CZ-2C R/B 2.6 18:06:20 10° S 18:11:16 83° WSW 18:16:24 10° NNW
Cosmos 2056 Rocket 3.7 18:12:06 10° S 18:17:20 56° ESE 18:22:34 10° NNE
COSMO-SKYMED 1 2.5 18:13:10 10° NNE 18:17:29 67° ESE 18:21:47 10° S
Cosmos 921 Rocket 3.9 18:17:32 10° SSW 18:21:37 48° WNW 18:25:47 10° N
Cosmos 1025 Rocket 3.1 18:17:31 10° S 18:21:46 55° E 18:26:04 10° NNE
Cosmos 1821 Rocket 4.2 18:19:43 10° N 18:25:29 44° E 18:31:15 10° SSE
Timation 2 Rocket 4.2 18:20:36 10° NNW 18:27:25 64° ENE 18:34:11 10° SSE
Cosmos 1624 Rocket 3.9 18:25:12 10° SSW 18:30:23 85° ESE 18:35:36 10° NNE
ATLAS 2AS CENTAUR R/B 4.1 18:24:56 10° NW 18:32:20 46° WSW 18:39:08 10° S
Cosmos 1340 3.5 18:30:45 10° SSE 18:34:02 28° E 18:34:57 25° ENE
YAOGAN 1 3.8 18:30:31 10° S 18:34:38 44° W 18:38:46 10° NNW
Cosmos 1371 Rocket 4.4 18:30:45 10° SSW 18:36:03 66° WNW 18:41:24 10° N
Meteor 2-16 Rocket 4.4 18:40:01 10° N 18:46:07 85° E 18:52:12 10° S
COSMOS 2487 4.3 18:43:33 10° NW 18:46:50 34° W 18:50:05 10° SSW
Orbus 7S? 2.3 18:50:41 10° SW 18:53:54 89° NW 18:54:06 74° NNE
Cosmos 1666 2.5 18:53:48 10° N 18:57:40 72° E 19:01:31 10° S
CZ-3B R/B 3.2 18:56:02 10° WSW 18:59:20 29° S 18:59:23 29° S
Delta 2 Rocket 4.5 19:02:38 10° NW 19:05:39 28° N 19:05:39 28° N
Cosmos 1727 Rocket 3.9 18:59:57 10° S 19:06:05 62° E 19:10:52 17° NNE
Cosmos 1452 Rocket 3.4 19:01:11 10° S 19:06:20 66° ESE 19:08:13 39° NE
OAO 2 Rocket 3.8 19:03:20 10° SW 19:08:13 44° SSE 19:09:08 40° ESE
Cosmos 1833 Rocket 2.9 19:05:54 10° NNW 19:11:30 69° WSW 19:17:03 10° S
Cosmos 1892 Rocket 4.0 19:09:55 10° SSW 19:14:11 59° W 19:17:15 18° N
Cosmos 1190 Rocket 3.9 19:09:50 10° N 19:14:59 58° ENE 19:15:37 54° ESE
Cosmos 2082 Rocket 3.2 19:13:16 10° NNW 19:18:41 48° WSW 19:24:07 10° S
Cosmos 2263 4.4 19:14:08 10° S 19:19:33 50° ESE 19:19:33 50° ESE
FALCON 9 R/B 3.3 19:00:15 10° W 19:22:06 60° N 19:24:36 42° NE
Cosmos 1726 Rocket 3.9 19:24:11 10° NNW 19:28:36 66° W 19:33:01 10° S
Cosmos 2369 Rocket 2.7 19:44:25 10° SSW 19:49:56 55° WNW 19:50:46 50° NW
NOSS 3-4 (A) 4.1 20:01:23 10° NW 20:08:32 66° WSW 20:11:08 42° S
NOSS 3-4 (C) 4.1 20:01:29 10° NW 20:08:39 67° WSW 20:10:59 45° S
Cosmos 1943 Rocket 4.0 20:16:41 10° SSW 20:18:47 23° SSW 20:18:47 23° SSW
ATLAS 3B CENTAUR R/B 3.2 20:09:50 10° W 20:23:21 68° WSW 20:23:21 68° WSW
